• In Hungary
  • List of Countries
  • For 7 days
  • Water Temperature
  • Satellite Maps
  • Weather Map
  • News
  • Weather Widgets
  • user-avatar
    Login

    Hourly Weather Horodysche

    Today, 11 December, Monday

    Time Temperature Precipitation Wind Pressure Humidity
    00:00 -6°C° 0 mm 3 mps 724 mmHg 86%
    01:00 -7°C° 0 mm 4 mps 724 mmHg 84%
    02:00 -6°C° 0 mm 3 mps 723 mmHg 86%
    03:00 -7°C° 0 mm 4 mps 723 mmHg 82%
    04:00 -6°C° 0 mm 5 mps 723 mmHg 79%
    05:00 -5°C° 0 mm 6 mps 723 mmHg 76%
    06:00 -5°C° 0 mm 6 mps 723 mmHg 74%
    07:00 -5°C° 0 mm 6 mps 723 mmHg 73%
    08:00 -5°C° 0 mm 5 mps 723 mmHg 72%
    09:00 -4°C° 0 mm 6 mps 723 mmHg 71%
    10:00 -3°C° 0 mm 6 mps 723 mmHg 71%
    11:00 -2°C° 0 mm 6 mps 723 mmHg 70%
    12:00 -2°C° 0.2 mm 6 mps 723 mmHg 73%
    13:00 -1°C° 0.2 mm 6 mps 724 mmHg 77%
    14:00 +1°C° 0.2 mm 6 mps 724 mmHg 80%
    15:00 +1°C° 0.1 mm 6 mps 724 mmHg 79%
    16:00 +2°C° 0.1 mm 6 mps 724 mmHg 78%
    17:00 +2°C° 0.1 mm 6 mps 724 mmHg 78%
    18:00 +2°C° 0 mm 6 mps 724 mmHg 77%
    19:00 +3°C° 0 mm 6 mps 724 mmHg 76%
    20:00 +3°C° 0 mm 6 mps 725 mmHg 76%
    21:00 +3°C° 0 mm 6 mps 725 mmHg 76%
    22:00 +3°C° 0 mm 6 mps 725 mmHg 76%
    23:00 +3°C° 0 mm 6 mps 725 mmHg 76%

    Tomorrow, 12 December, Tuesday

    Time Temperature Precipitation Wind Pressure Humidity
    00:00 +3°C° 0 mm 6 mps 725 mmHg 77%
    01:00 +3°C° 0 mm 6 mps 725 mmHg 78%
    02:00 +3°C° 0 mm 5 mps 726 mmHg 78%
    03:00 +3°C° 0 mm 5 mps 725 mmHg 78%
    04:00 +3°C° 0 mm 5 mps 725 mmHg 78%
    05:00 +3°C° 0 mm 6 mps 725 mmHg 77%
    06:00 +3°C° 0 mm 5 mps 726 mmHg 77%
    07:00 +2°C° 0 mm 5 mps 726 mmHg 77%
    08:00 +2°C° 0 mm 5 mps 726 mmHg 76%
    09:00 +3°C° 0 mm 5 mps 726 mmHg 74%
    10:00 +4°C° 0 mm 6 mps 727 mmHg 71%
    11:00 +7°C° 0 mm 6 mps 727 mmHg 68%
    12:00 +7°C° 0 mm 6 mps 727 mmHg 67%
    13:00 +8°C° 0 mm 5 mps 727 mmHg 66%
    14:00 +9°C° 0 mm 5 mps 727 mmHg 64%
    15:00 +8°C° 0 mm 5 mps 727 mmHg 67%
    16:00 +7°C° 0 mm 5 mps 728 mmHg 70%
    17:00 +7°C° 0 mm 5 mps 728 mmHg 73%
    18:00 +6°C° 0 mm 5 mps 728 mmHg 74%
    19:00 +6°C° 0 mm 4 mps 729 mmHg 75%
    20:00 +6°C° 0 mm 4 mps 729 mmHg 77%
    21:00 +6°C° 0 mm 4 mps 729 mmHg 78%
    22:00 +6°C° 0 mm 4 mps 729 mmHg 79%
    23:00 +6°C° 0 mm 4 mps 729 mmHg 80%

    Day after tomorrow, 13 December, Wednesday

    Time Temperature Precipitation Wind Pressure Humidity
    00:00 +5°C° 0 mm 4 mps 729 mmHg 80%
    01:00 +5°C° 0 mm 4 mps 729 mmHg 80%
    02:00 +5°C° 0 mm 4 mps 729 mmHg 80%
    03:00 +5°C° 0 mm 3 mps 729 mmHg 81%
    04:00 +5°C° 0 mm 3 mps 729 mmHg 82%
    05:00 +4°C° 0 mm 3 mps 729 mmHg 83%
    06:00 +4°C° 0 mm 3 mps 729 mmHg 85%
    07:00 +3°C° 0 mm 3 mps 729 mmHg 87%
    08:00 +3°C° 0 mm 3 mps 729 mmHg 89%
    09:00 +3°C° 0 mm 3 mps 730 mmHg 87%
    10:00 +3°C° 0 mm 4 mps 730 mmHg 86%
    11:00 +3°C° 0 mm 5 mps 731 mmHg 84%
    12:00 +2°C° 0.1 mm 5 mps 731 mmHg 83%
    13:00 +3°C° 0.1 mm 4 mps 731 mmHg 81%
    14:00 +3°C° 0.1 mm 4 mps 731 mmHg 80%
    15:00 +1°C° 0 mm 4 mps 731 mmHg 81%
    16:00 +2°C° 0 mm 3 mps 731 mmHg 82%
    17:00 +2°C° 0 mm 2 mps 731 mmHg 83%
    18:00 +2°C° 0 mm 2 mps 731 mmHg 84%
    19:00 +2°C° 0 mm 2 mps 731 mmHg 84%
    20:00 +3°C° 0 mm 1 mps 731 mmHg 85%
    21:00 +2°C° 0 mm 1 mps 731 mmHg 85%
    22:00 +2°C° 0 mm 1 mps 731 mmHg 85%
    23:00 +2°C° 0 mm 1 mps 731 mmHg 85%

    14 December, Thursday

    Time Temperature Precipitation Wind Pressure Humidity
    00:00 +2°C° 0.1 mm 1 mps 731 mmHg 86%
    01:00 +2°C° 0.1 mm 1 mps 730 mmHg 86%
    02:00 +2°C° 0.1 mm 1 mps 730 mmHg 86%
    03:00 +2°C° 0 mm 1 mps 730 mmHg 87%
    04:00 +2°C° 0 mm 1 mps 729 mmHg 88%
    05:00 +1°C° 0 mm 2 mps 729 mmHg 89%
    06:00 +1°C° 0 mm 2 mps 729 mmHg 90%
    07:00 +1°C° 0 mm 2 mps 728 mmHg 91%
    08:00 -1°C° 0 mm 2 mps 728 mmHg 93%
    09:00 +1°C° 0 mm 2 mps 728 mmHg 91%
    10:00 +2°C° 0 mm 2 mps 728 mmHg 89%
    11:00 +2°C° 0 mm 2 mps 728 mmHg 88%
    12:00 +3°C° 0 mm 2 mps 727 mmHg 87%
    13:00 +3°C° 0 mm 2 mps 727 mmHg 86%
    14:00 +4°C° 0 mm 2 mps 726 mmHg 84%
    15:00 +3°C° 0 mm 2 mps 726 mmHg 87%
    16:00 +2°C° 0 mm 3 mps 726 mmHg 89%
    17:00 +1°C° 0 mm 3 mps 726 mmHg 92%
    18:00 +1°C° 0 mm 3 mps 726 mmHg 92%
    19:00 +1°C° 0 mm 3 mps 726 mmHg 92%
    20:00 0°C° 0 mm 4 mps 725 mmHg 92%
    21:00 0°C° 0 mm 4 mps 725 mmHg 92%
    22:00 0°C° 0 mm 5 mps 725 mmHg 92%
    23:00 0°C° 0 mm 5 mps 724 mmHg 92%

    15 December, Friday

    Time Temperature Precipitation Wind Pressure Humidity
    00:00 0°C° 0.2 mm 5 mps 724 mmHg 90%
    01:00 0°C° 0.2 mm 5 mps 723 mmHg 88%
    02:00 +1°C° 0.2 mm 5 mps 722 mmHg 87%
    03:00 0°C° 0 mm 5 mps 722 mmHg 85%
    04:00 0°C° 0 mm 5 mps 722 mmHg 84%
    05:00 -1°C° 0 mm 6 mps 721 mmHg 82%
    06:00 0°C° 0 mm 5 mps 721 mmHg 81%
    07:00 0°C° 0 mm 5 mps 721 mmHg 80%
    08:00 +1°C° 0 mm 5 mps 722 mmHg 79%
    09:00 +2°C° 0 mm 5 mps 722 mmHg 75%
    10:00 +3°C° 0 mm 5 mps 722 mmHg 72%
    11:00 +5°C° 0 mm 5 mps 723 mmHg 68%
    12:00 +6°C° 0 mm 5 mps 723 mmHg 68%
    13:00 +6°C° 0 mm 5 mps 723 mmHg 67%
    14:00 +7°C° 0 mm 4 mps 723 mmHg 66%
    15:00 +6°C° 0 mm 4 mps 723 mmHg 70%
    16:00 +5°C° 0 mm 3 mps 723 mmHg 73%
    17:00 +6°C° 0 mm 2 mps 724 mmHg 77%
    18:00 +5°C° 0 mm 3 mps 723 mmHg 78%
    19:00 +5°C° 0 mm 3 mps 722 mmHg 78%
    20:00 +5°C° 0 mm 4 mps 722 mmHg 79%
    21:00 +4°C° 0 mm 6 mps 721 mmHg 76%
    22:00 +5°C° 0 mm 7 mps 721 mmHg 73%
    23:00 +5°C° 0 mm 9 mps 720 mmHg 70%

    16 December, Saturday

    Time Temperature Precipitation Wind Pressure Humidity
    00:00 +5°C° 0.2 mm 9 mps 719 mmHg 71%
    01:00 +5°C° 0.2 mm 9 mps 719 mmHg 72%
    02:00 +5°C° 0.2 mm 9 mps 718 mmHg 73%
    03:00 +5°C° 0.4 mm 9 mps 718 mmHg 76%
    04:00 +5°C° 0.4 mm 8 mps 718 mmHg 80%
    05:00 +5°C° 0.4 mm 8 mps 718 mmHg 83%
    06:00 +5°C° 0 mm 7 mps 719 mmHg 82%
    07:00 +5°C° 0 mm 7 mps 719 mmHg 81%
    08:00 +5°C° 0 mm 6 mps 719 mmHg 79%
    09:00 +5°C° 0 mm 6 mps 720 mmHg 77%
    10:00 +7°C° 0 mm 6 mps 721 mmHg 75%
    11:00 +7°C° 0 mm 5 mps 721 mmHg 73%
    12:00 +7°C° 0.4 mm 4 mps 721 mmHg 78%
    13:00 +7°C° 0.4 mm 3 mps 721 mmHg 82%
    14:00 +6°C° 0.4 mm 2 mps 721 mmHg 86%
    15:00 +6°C° 0.9 mm 2 mps 721 mmHg 88%
    16:00 +5°C° 0.9 mm 2 mps 721 mmHg 89%
    17:00 +5°C° 0.9 mm 2 mps 721 mmHg 91%
    18:00 +5°C° 0.6 mm 2 mps 722 mmHg 90%
    19:00 +3°C° 0.6 mm 3 mps 722 mmHg 90%
    20:00 +3°C° 0.6 mm 3 mps 723 mmHg 89%
    21:00 +3°C° 0.1 mm 3 mps 723 mmHg 89%
    22:00 +1°C° 0.1 mm 4 mps 724 mmHg 88%
    23:00 +1°C° 0.1 mm 4 mps 724 mmHg 87%
    Show more